Location: Budapest
(47.4979°N, 19.0402°E)
Time: 06:05:52
(UTC+02:00)

Tiangong 1 - Pass Details

Date: 08 October 2017
Orbit: 292 x 319 km, 42.8° (Epoch: 22 October)

Event Time Altitude Azimuth Distance (km) Brightness Sun altitude
Rises 18:55:56 0° 236° (SW) 2,038 5.7 -8.7°
Reaches altitude 10° 18:58:10 10° 219° (SW) 1,203 4.1 -9.1°
Maximum altitude 19:00:18 21° 166° (SSE) 768 2.4 -9.4°
Enters shadow 19:01:57 13° 121° (ESE) 1,043 2.7 -9.7°
